< < Back
Terminal Aerodrome Forecast


Current Version              Previous Versions:   1  2  3  4  5  6  7  8  9  

Terminal Aerodrome Forecast

401
FTUS42 KFFC 251141
TAFPDK
TAF
KPDK 251141Z 2512/2612 00000KT P6SM FEW120
     FM251500 26004KT P6SM SCT035
     FM251800 24006KT P6SM VCSH SCT050
      TEMPO 2518/2522 4SM -TSRA BR BKN035CB
     FM260100 24003KT P6SM SCT100=

Latest METAR

543
SAUS70 KWBC 251100 RRH
MTRPDK
METAR KPDK 251053Z 00000KT 10SM CLR 23/21 A3008 RMK AO2 SLP169
T02280211


USA.gov is the U.S. government's official web portal to all federal, state and local government web resources and services.